STARLINK-32441, 61668

Orbit data source: Space-Track

STARLINK-32441, 61668 is a payload satellite owned by SpaceX/Seattle (US) in LEO that was launched on Sat, 26 Oct 2024 UTC via an FALCON 9 launch vehicle from the Air Force Eastern Test Range (AFETR). Payloads include a variety of satellites, spacecraft, and rockets equipped with specific instruments for various scientific and technological missions. These include communications satellites like Starlink; space stations such as the ISS; scientific satellites like the Hubble; Earth observation satellites from companies like Planet Labs, Umbra, and HawkEye 360; GPS; miniature CubeSats for education and research; and military/defense satellites.

Loading next visibility...
STARLINK-32441 details
Identifier
61668, 2024-193H
Orbit
LEO
Last TLE update14 hours ago
Origin
Flag of USSpaceX/Seattle (US)
ManufacturerSpaceX/Seattle
MissionOperational spacecraft
Bus & MotorSTARLINK V2M, Unknown motor
Mass730 kg wet, ~700 kg dry
Launch date (UTC)
2024-10-26 (2 months ago)
Launch vehicle
FALCON 9
Launch site
Air Force Eastern Test Range (AFETR)
Object type
Payload
Rocket body
Debris
Shape & HBRUnknown
Radar Cross SectionLarge (>1 m²)

Expand to show TLE details & history

TLE from 14 hours ago
0 STARLINK-32441
1 61668U 24193H   24361.29535159 -.00001668  00000-0 -31746-4 0  9999
2 61668  53.1603 329.6432 0001283 113.7697 246.3442 15.39605802  9377
Epoch: 2024-12-26T07:05Z
Definitive object data (Epoch: 2024-12-26T07:05:18.377Z)
Latitude-0.00006°
Longitude128.03979°
Altitude448.529 km
Speed7.644 km/s
True Right ascension21h 58m 34s
True Declination0° 00' 00"
Sunlit
Object was in daylight at TLE epoch
Visualization TLE readout
Latitude22.17867°
Longitude142.94321°
Altitude447.909 km
Speed7.647 km/s
Apparent Right ascension02h 20m 34s
Apparent Declination-22° 22' 03"
Sunlit
Object is in daylight
Visualization observer readout
Local Sidereal Time20:36:49
Azimuth109.9° ESE
Elevation-11.181°
Doppler factor1
Orbital elements
Apogee altitude448.407 km
Perigee altitude446.656 km
Semi-major axis6,825.669 km
Eccentricity0.0001283
Inclination53.1603°
RAAN329.6432°
Arg. of periapsis113.7697°
True anomaly246.33073°
Mean anomaly246.3442°
Eccentric anomaly246.33747°
Mean motion3.8488 °/min
BSTAR-0.000031746
Orbital period93.54 mins
Loading maneuver chart data...
Loading historical data...
Loading historical data...
Loading historical data...
Loading historical data...
Loading historical data...
Loading historical data...
Loading historical data...

STARLINK-32441 Visibility forecast

Observer location: undefined°, undefined

Span
Click to sort rows by Start time (UTC) header in descending order
Start Az.
Max El. time (UTC)
Max El. Az.
Max El.
End time (UTC)
End Az.
5 mins2024-12-27 00:23:52.171Z201.462° SSW2024-12-27 00:25:52.171Z155.879° SSE33.606°2024-12-27 00:28:52.171Z66.179° ENE
4 mins2024-12-27 02:01:52.171Z288.375° WNW2024-12-27 02:03:52.171Z337.455° NNW22.619°2024-12-27 02:05:52.171Z20.819° NNE
5 mins2024-12-27 06:56:52.171Z337.242° NNW2024-12-27 06:58:52.171Z41.309° NE31.237°2024-12-27 07:01:52.171Z102.604° ESE
|